Find Starlink 2266

NORAD ID: 47997 Int'l Des: 2021-024 Owner: SPXS Country: US Constellation: starlink operational
LEOCIRCULAR

当前视图

正在加载3D地球...

About Starlink 2266

Starlink 2266 (NORAD 47997) is a starlink constellation satellite (v1.0) launched Mar 24, 2021 by SPXS of US. It operates in LEO, CIRCULAR orbit with a mass of 260.00 kg.

关于 Starlink 2266

正在加载描述...

即将过境

Passes for default location (London). Set your location on the main map for personalized predictions.

高度历史

Loading altitude history...

两行轨道根数

1 47997U 21024W 26167.31080634 .00000557 00000-0 29716-4 0 9998
2 47997 53.1604 207.9775 0001341 79.3470 280.7682 15.31693201290097
Epoch: Jun 16, 2026 • Age: 4 hours

当前状态

高度 488.9 km
速度 7.62 km/s
星下点 -50.26°S, 61.16°E
发射日期 Mar 24, 2021
运行时间 5.2 years
类型 internet

技术详情

分类 Payload
质量 260.00 kg
干质量 248.00 kg
总质量 260.00 kg
长度 0.20 m
直径 2.80 m
跨度 9.00 m
形状 Box + pan
制造商 SPXS
平台类型 Starlink
阶段状态 In Orbit
所有者/国家 SPXS/US

Most Searched